Location: Sagn�
(15.2046°N, 12.7898°W)
Time: 12:44:32
(UTC+00:00)

BREEZE M DEB (TANK) - Pass Details

Date: 08 May 2021
Orbit: 289 x 16145 km, 49.5° (Epoch: 14 June)

Event Time Altitude Azimuth Distance (km) Brightness Sun altitude
Rises 19:20:26 0° 320° (NW) 9,304 9.7 -3.1°
Reaches altitude 10° 19:29:55 10° 326° (NW) 5,836 8.4 -5.2°
Maximum altitude 19:41:21 41° 33° (NNE) 1,366 4.2 -7.8°
Enters shadow 19:44:48 11° 105° (ESE) 1,792 4.3 -8.6°
